This is the latest recevied weather packets stored in our database for station/object KX4O-13. If no packets are shown the sender has not sent any weather packets the latest 10 day(s).
| Time | Temp. | Humidity | Pressure | Rain* | Wind** | Luminosity | Snow |
|---|---|---|---|---|---|---|---|
| 1778088951 | 17.78° C | 85% | 1008.4 hPa | 0 mm | - | 209 W/m² | - |
| 1778088653 | 17.78° C | 85% | 1008.6 hPa | 0 mm | - | 225 W/m² | - |
| 1778088351 | 17.78° C | 86% | 1008.5 hPa | 0 mm | - | 258 W/m² | - |
| 1778088051 | 17.78° C | 85% | 1008.5 hPa | 0 mm | - | 272 W/m² | - |
| 1778087751 | 17.22° C | 86% | 1008.6 hPa | 0 mm | - | 274 W/m² | - |
| 1778087451 | 17.22° C | 86% | 1008.6 hPa | 0 mm | - | 200 W/m² | - |
| 1778087151 | 17.22° C | 87% | 1008.6 hPa | 0 mm | - | 158 W/m² | - |
| 1778086851 | 16.67° C | 86% | 1008.6 hPa | 0 mm | - | 169 W/m² | - |
| 1778086551 | 16.67° C | 86% | 1008.7 hPa | 0 mm | - | 125 W/m² | - |
| 1778086253 | 16.67° C | 86% | 1008.9 hPa | 0 mm | - | 128 W/m² | - |
| 1778085951 | 16.67° C | 86% | 1008.8 hPa | 0 mm | - | 88 W/m² | - |
| 1778085651 | 17.22° C | 87% | 1008.9 hPa | 0 mm | - | 199 W/m² | - |
| 1778085351 | 16.67° C | 86% | 1008.9 hPa | 0 mm | - | 199 W/m² | - |
| 1778085051 | 17.22° C | 87% | 1009 hPa | 0 mm | - | 216 W/m² | - |
| 1778084751 | 17.22° C | 87% | 1008.9 hPa | 0 mm | - | 250 W/m² | - |
| 1778084451 | 16.67° C | 87% | 1008.7 hPa | 0 mm | - | 415 W/m² | - |
| 1778084151 | 17.22° C | 88% | 1008.9 hPa | 0 mm | - | 415 W/m² | - |
| 1778083853 | 16.67° C | 89% | 1008.9 hPa | 0 mm | - | 413 W/m² | - |
| 1778083551 | 16.67° C | 90% | 1008.9 hPa | 0 mm | - | 376 W/m² | - |
| 1778083251 | 16.67° C | 91% | 1008.8 hPa | 0 mm | - | 404 W/m² | - |
| 1778082951 | 16.11° C | 91% | 1008.9 hPa | 0 mm | - | 306 W/m² | - |
| 1778082651 | 16.11° C | 91% | 1009.1 hPa | 0 mm | - | 236 W/m² | - |
| 1778082351 | 16.11° C | 92% | 1009 hPa | 0 mm | - | 158 W/m² | - |
| 1778082051 | 15.56° C | 92% | 1009 hPa | 0 mm | - | 105 W/m² | - |
| 1778081751 | 15.56° C | 92% | 1009.1 hPa | 0 mm | - | 105 W/m² | - |
* Rain latest hour (hover to see other rain measurements)
** Current wind speed in m/s (hover to see current wind gust speed)